Hillsdale Lake Weather Center

Moon Phase Calendar



Hillsdale Lake Water Level
Online Cameras

 


      

Current Conditions in Spring Hill
2/26/2024 4:09:13 PM

77°F
Feels Like 76
Clear
Humidity
27%
Pressure
29.5"
Wind
12.7 mph (SSW)
Dew Point
41°F
UV Index
1/10 (Low)
Visibility
6 mi

Hourly Forecast

Date & Time Mon, Feb 26
4:00 PM
Mon, Feb 26
5:00 PM
Mon, Feb 26
6:00 PM
Mon, Feb 26
7:00 PM
Mon, Feb 26
8:00 PM
Mon, Feb 26
9:00 PM
Mon, Feb 26
10:00 PM
Mon, Feb 26
11:00 PM
Tue, Feb 27
12:00 AM
Tue, Feb 27
1:00 AM
Tue, Feb 27
2:00 AM
Tue, Feb 27
3:00 AM
Tue, Feb 27
4:00 AM
Tue, Feb 27
5:00 AM
Tue, Feb 27
6:00 AM
Tue, Feb 27
7:00 AM
Tue, Feb 27
8:00 AM
Tue, Feb 27
9:00 AM
Tue, Feb 27
10:00 AM
Tue, Feb 27
11:00 AM
Tue, Feb 27
12:00 PM
Tue, Feb 27
1:00 PM
Tue, Feb 27
2:00 PM
Tue, Feb 27
3:00 PM
Tue, Feb 27
4:00 PM
Tue, Feb 27
5:00 PM
Tue, Feb 27
6:00 PM
Tue, Feb 27
7:00 PM
Tue, Feb 27
8:00 PM
Tue, Feb 27
9:00 PM
Tue, Feb 27
10:00 PM
Tue, Feb 27
11:00 PM
Wed, Feb 28
12:00 AM
Wed, Feb 28
1:00 AM
Wed, Feb 28
2:00 AM
Wed, Feb 28
3:00 AM
Wed, Feb 28
4:00 AM
Wed, Feb 28
5:00 AM
Wed, Feb 28
6:00 AM
Wed, Feb 28
7:00 AM
Wed, Feb 28
8:00 AM
Wed, Feb 28
9:00 AM
Wed, Feb 28
10:00 AM
Wed, Feb 28
11:00 AM
Wed, Feb 28
12:00 PM
Wed, Feb 28
1:00 PM
Wed, Feb 28
2:00 PM
Wed, Feb 28
3:00 PM
Condition
Clear

Clouds

Clouds

Clear

Clouds

Clouds

Clouds

Clouds

Clouds

Clouds

Clouds

Clouds

Clouds

Clouds

Clouds

Clouds

Clouds

Clouds

Clouds

Clouds

Clouds

Clear

Clouds

Clouds

Clouds

Clouds

Clouds

Clouds

Clouds

Clouds

Clouds

Clouds

Snow

Snow

Clouds

Clouds

Clouds

Clouds

Clouds

Clear

Clear

Clear

Clear

Clear

Clear

Clear

Clear

Clear
Temperature 77°F76°F72°F68°F64°F60°F59°F59°F59°F58°F57°F57°F57°F56°F54°F54°F56°F60°F65°F69°F72°F75°F76°F76°F71°F54°F48°F44°F38°F33°F31°F29°F27°F27°F26°F26°F24°F22°F21°F20°F21°F24°F28°F31°F35°F37°F39°F41°F
Feels Like 76°F75°F71°F66°F62°F58°F57°F56°F57°F56°F55°F55°F55°F54°F53°F52°F54°F58°F63°F67°F70°F73°F74°F74°F70°F51°F41°F35°F26°F21°F18°F16°F15°F14°F14°F13°F11°F10°F8°F7°F9°F12°F17°F23°F28°F32°F35°F37°F
Cloudiness 0%12%20%4%12%43%56%63%69%100%100%100%100%100%100%100%100%100%100%98%98%9%24%18%16%29%26%100%100%100%82%86%88%100%100%100%98%99%90%3%2%1%1%1%0%0%0%0%
Visibility 6 mi6 mi6 mi6 mi6 mi6 mi6 mi6 mi6 mi6 mi6 mi6 mi6 mi6 mi6 mi6 mi6 mi6 mi6 mi6 mi6 mi6 mi6 mi6 mi6 mi6 mi6 mi6 mi6 mi6 mi6 mi5 mi1 mi6 mi6 mi6 mi6 mi6 mi6 mi6 mi6 mi6 mi6 mi6 mi6 mi6 mi6 mi6 mi
Precipitation 0%0%0%0%0%0%0%0%0%0%0%0%0%0%0%0%0%0%0%0%0%0%0%0%0%0%0%0%0%0%5%5%49%61%60%49%48%46%36%0%0%0%0%0%0%0%0%0%
Humidity 27%28%31%33%39%44%47%50%52%55%57%56%56%59%63%61%54%43%35%31%30%27%26%26%32%44%46%49%53%58%64%74%80%70%60%54%53%53%54%55%51%43%38%34%30%28%27%27%
Dew Point 41°F41°F40°F38°F39°F38°F39°F40°F41°F41°F42°F41°F41°F42°F42°F41°F39°F38°F36°F38°F39°F39°F39°F39°F40°F33°F29°F26°F22°F20°F20°F22°F22°F18°F14°F11°F9°F7°F6°F6°F5°F5°F5°F6°F6°F7°F8°F9°F
Pressure 29.5"29.5"29.5"29.5"29.5"29.5"29.53"29.5"29.47"29.47"29.47"29.44"29.41"29.41"29.41"29.38"29.38"29.38"29.35"29.35"29.32"29.29"29.29"29.29"29.32"29.44"29.53"29.62"29.74"29.8"29.85"29.91"29.97"30"30.06"30.09"30.15"30.21"30.24"30.3"30.33"30.39"30.39"30.36"30.39"30.36"30.33"30.33"
Wind Speed 10.2 mph9.4 mph7.2 mph7.8 mph6.9 mph6.6 mph7.5 mph7.2 mph6.7 mph7.2 mph7 mph6.7 mph7.4 mph7.7 mph8.2 mph9.1 mph8.5 mph11.2 mph14.3 mph17.3 mph18.6 mph17.9 mph18.4 mph17.7 mph20.5 mph26.7 mph24.4 mph23.2 mph26.8 mph26.3 mph21.3 mph21.1 mph19.3 mph18.7 mph17.3 mph19.6 mph19.2 mph18 mph15.4 mph13.8 mph13.4 mph13.7 mph11.8 mph9.8 mph8 mph6.7 mph5.7 mph6.4 mph
Wind
Direction
216°
SW
218°
SW
215°
SW
214°
SW
220°
SW
229°
SW
226°
SW
218°
SW
209°
SSW
193°
SSW
196°
SSW
206°
SSW
181°
S
195°
SSW
201°
SSW
202°
SSW
211°
SSW
205°
SSW
213°
SSW
224°
SW
230°
SW
247°
WSW
250°
WSW
261°
W
321°
NW
343°
NNW
346°
NNW
342°
NNW
336°
NNW
340°
NNW
346°
NNW
340°
NNW
335°
NNW
334°
NNW
332°
NNW
334°
NNW
333°
NNW
333°
NNW
335°
NNW
334°
NNW
335°
NNW
337°
NNW
342°
NNW
341°
NNW
329°
NNW
318°
NW
291°
WNW
255°
WSW

Daily Forecast

Date High Low Precip. Humidity
Today
Feb 26

Clouds
77 °F
51 °F
0%
33%
Tuesday
Feb 27

Clouds
76 °F
29 °F
5%
30%
Wednesday
Feb 28

Snow
42 °F
20 °F
61%
30%
Thursday
Feb 29

Rain
54 °F
31 °F
34%
27%
Friday
Mar 1

Rain
55 °F
40 °F
96%
75%
Saturday
Mar 2

Clear
74 °F
45 °F
0%
53%
Sunday
Mar 3

Rain
76 °F
61 °F
82%
58%
Monday
Mar 4

Rain
66 °F
41 °F
98%
47%
Tuesday
Mar 5

Clear
55 °F
33 °F
0%
27%
Wednesday
Mar 6

Rain
58 °F
38 °F
78%
35%
Thursday
Mar 7

Rain
55 °F
42 °F
100%
81%
Friday
Mar 8

Rain
52 °F
50 °F
100%
97%
Saturday
Mar 9

Rain
50 °F
40 °F
100%
80%
Sunday
Mar 10

Clouds
56 °F
37 °F
0%
45%
Monday
Mar 11

Clouds
65 °F
42 °F
0%
46%
Tuesday
Mar 12

Clear
59 °F
40 °F
0%
29%

Temperature 8-14 Day Outlook



Precipitation 8-14 Day Outlook




Quick Links
Hillsdale Lake News
Hillsdale Lake Photos
Hillsdale Lake Videos




About Us
Contact Us
Site Map
Search Site
Advertise With Us
   
Hillsdale.USLakes.info
THE HILLSDALE LAKE WEBSITE

Copyright 2024, Lakes Online
Privacy    |    Legal